Regional Weather Roundup
Issued by NWS

Home | Current Version | Previous Version | Text Only | Print | Product List | Glossary On
Versions: 1 2 3 4 5 6 7 8 9 10 11 12 13 14 15 16 17 18 19 20 21 22 23 24 25 26 27 28 29 30 31 32 33 34 35 36 37 38 39 40 41 42 43 44 45 46 47 48 49 50
000
ASUS44 KBMX 020210
RWRAL

ALABAMA REGIONAL WEATHER ROUNDUP
NATIONAL WEATHER SERVICE BIRMINGHAM AL
900 PM CDT MON SEP 01 2014

NOTE: "FAIR" INDICATES FEW OR NO CLOUDS BELOW 12,000 FEET
WITH NO SIGNIFICANT WEATHER AND/OR OBSTRUCTIONS TO VISIBILITY.

THE REMARK "TC" DENOTES TEMPERATURE IN DEGREES CELSIUS.

ALZ001>011-014-016>018-020-020300-
NORTH ALABAMA

CITY           SKY/WX    TMP DP  RH WIND       PRES   REMARKS
MUSCLE SHOALS  CLEAR     75  70  84 CALM      30.05R
HUNTSVILLE     CLEAR     79  73  82 SE5       30.05R
DECATUR        CLEAR     77  73  87 MISG      30.05R
HALEYVILLE     FAIR      74  72  93 CALM      30.09R
GADSDEN        PTCLDY    77  68  73 CALM      30.07R
$$

ALZ012-013-022-023-030>036-040>044-020300-
WEST CENTRAL ALABAMA

CITY           SKY/WX    TMP DP  RH WIND       PRES   REMARKS
TUSCALOOSA     PTCLDY    84  70  62 S6        30.04R
$$

ALZ015-024>027-033>036-040>044-020300-
CENTRAL ALABAMA

CITY           SKY/WX    TMP DP  RH WIND       PRES   REMARKS
BIRMINGHAM     PTCLDY    82  71  69 SE3       30.09R
MONTGOMERY     PTCLDY    83  72  69 SW5       30.07R
SHELBY CO ARPT CLEAR     79  72  79 CALM      30.07R
MAXWELL AFB    PTCLDY    83  72  70 S3        30.07R
GREENVILLE     FAIR      77  73  87 S3        30.09R
$$

ALZ019-021-028-029-037-038-045>048-020300-
EAST CENTRAL ALABAMA

CITY           SKY/WX    TMP DP  RH WIND       PRES   REMARKS
ANNISTON       PTCLDY    79  71  76 NE5       30.09R
ALEXANDER CITY PTCLDY    81  71  73 CALM      30.10R
AUBURN         PTCLDY    79  66  65 E3        30.14R
$$

ALZ051>064-020300-
SOUTHWEST ALABAMA

CITY           SKY/WX    TMP DP  RH WIND       PRES   REMARKS
MOBILE         MOCLDY    81  77  88 S7        30.08R
BROOKLEY FIELD MOCLDY    85  76  74 SE8       30.08R HX  94
EVERGREEN      MOCLDY    83  73  72 SW3       30.09R
$$

ALZ049-050-065>069-020300-
SOUTHEAST ALABAMA

CITY           SKY/WX    TMP DP  RH WIND       PRES   REMARKS
DOTHAN         PTCLDY    83  70  64 SW6       30.12R
OZARK          PTCLDY    82  72  71 SW5       30.09R
TROY           MOCLDY    81  73  76 CALM      30.10R
EUFAULA        FAIR      76  73  91 NE3       30.07R
$$


USA.gov is the U.S. government's official web portal to all federal, state and local government web resources and services.